星链-5003 (STARLINK-5003 )

导读

STARLINK-5003是美国SpaceX星链互联网卫星星座的第五批组网卫星之一,于2022年9月24日发射升空,旨在为全球提供低延迟、高速率的卫星互联网服务。星链系统依托数千颗低轨卫星,可覆盖偏远地区,为地面网络未覆盖区域提供互联网接入,也服务于军事通信等特殊场景,是全球低轨巨型星座建设的典型代表。

基本信息
目录编号:
53905
目录名称:
STARLINK-5003
国际标识:
2022-119V
轨道中心:
EARTH
卫星名称:
星链-5003
卫星全名:
星链-5003 (STARLINK-5003 )
卫星状态:
在轨 (已飞行1362 天)
发射日期:
2022-09-24 UTC
国别 :
美国 (US)
星等 :
--
轨道信息
数据来源 国际轨道数据
星历时间: 2026-06-17T04:43:42+0800
12小时前
查看轨道信息
半长轴: 6917.873km
偏心率: 0.0001065
轨道倾角: 53.160°
近地点辐角 74.591°
升交点赤经 229.037°
平近点角 285.520°
近地点: 538.999km
远地点: 540.473km
周期: 95.437分钟
每日圈数: 15.088426
详细信息
固有亮度:
5
最大亮度:
2.5
卫星平台:
Starlink v1.5
覆盖范围:
全球
运营商:
太空探索技术公司
运营商所在国:
美国
制造商(研发单位):
太空探索技术公司
制造商所在国:
美国
使用方式:
暂无
卫星简介
星链(Starlink)计划是由太空探索技术公司(SpaceX)提出的一个巨型低轨卫星互联网星座项目,计划在2019年至2024年间在太空搭建由约1.2万颗卫星组成的“星链”网络,其中1584颗将部署在地球上空550千米处的近地轨道,并从2020年开始工作。该卫星仍在工作。
2D轨道图
3D轨道图
轨道高度分析图
轨道倾角分析图
轨道综合分析图
查看轨道综合分析图